Home   Weather   Papenburg   Past weeks

Flag for Germany Past Weather in Papenburg, Lower Saxony, Germany — Yesterday and Last 2 Weeks

Now
53 °F

Overcast.


Feels Like: 53 °F
Forecast: 51 / 67 °F
Wind: 2 mph from Southeast

Location: Emden-Koenigspolder

Current Time: Sep 25, 2016 at 5:58:16 AM

Latest Report: Sep 25, 2016 at 4:00 AM


Visibility: 5 mi

Pressure: 30.08 "Hg

Humidity: 84%

Dew Point: 49 °F

Location of PapenburgLocation

Past Weather in Papenburg — Graph

°F

Papenburg Temperature Yesterday

Maximum temperature yesterday: 70 °F (at 6:00 PM)
Minimum temperature yesterday: 44 °F (at 6:00 AM)
Average temperature yesterday: 58 °F

High & Low Weather Summary for the Past Weeks

 TemperatureHumidityPressure
High85 °F (Sep 13, 6:00 PM)100% (Sep 10, 7:00 AM)30.28 "Hg (Sep 10, 7:00 AM)
Low44 °F (Sep 24, 6:00 AM)46% (Sep 19, 4:00 PM)29.85 "Hg (Sep 16, 1:00 AM)
Average63 °F78%30.06 "Hg
* Reported Sep 10 4:00 AM — Sep 25 4:00 AM, Papenburg, Weather by CustomWeather, © 2016

Note: Actual official high and low records may vary slightly from our data, if they occured in-between our weather recording intervals... More about our weather records

Advertising

Papenburg Weather History for the Previous 24 Hours

Scroll right to see more
 ConditionsComfort  
Time TempWeatherWind HumidityBarometerVisibility
4:00 AM
Sun, Sep 25
53 °FOvercast.2 mph84%30.08 "Hg5 mi
3:00 AM54 °FOvercast.3 mph84%30.10 "Hg5 mi
1:00 AM54 °FOvercast.2 mph89%30.11 "Hg4 mi
12:00 AM55 °FOvercast.2 mph87%30.12 "Hg5 mi
10:00 PM
Sat, Sep 24
58 °FPassing clouds.2 mph86%30.14 "Hg6 mi
9:00 PM58 °FPassing clouds.2 mph86%30.15 "Hg7 mi
7:00 PM66 °FPartly sunny.1 mph66%30.15 "Hg17 mi
6:00 PM70 °FOvercast.2 mph53%30.15 "Hg17 mi
4:00 PM69 °FSunny.5 mph56%30.18 "Hg4 mi
3:00 PM69 °FSunny.6 mph59%30.19 "Hg19 mi
1:00 PM67 °FPartly sunny.5 mph62%30.21 "Hg6 mi
12:00 PM64 °FOvercast.6 mph68%30.22 "Hg7 mi
10:00 AM55 °FOvercast.3 mph83%30.24 "Hg6 mi
9:00 AM52 °FOvercast.3 mph89%30.24 "Hg6 mi
7:00 AM48 °FOvercast.2 mph98%30.24 "Hg3 mi
6:00 AM44 °FPassing clouds.2 mph99%30.24 "Hg0 mi
Weather by CustomWeather, © 2016

See weather overviewHow to use our weather pages